Location: Recife
(8.0585°S, 34.8848°W)
Time: 10:30:59
(UTC-03:00)

Courier 1B Rocket - Pass Details

Date: 21 April 2026
Orbit: 920 x 1201 km, 28.2° (Epoch: 13 May)

Event Time Altitude Azimuth Distance (km) Brightness Sun altitude
Rises 04:18:09 0° 264° (W) 3,548 - -16.3°
Reaches altitude 10° 04:21:18 10° 249° (WSW) 2,615 - -15.5°
Exits shadow 04:23:25 17° 233° (SW) 2,138 6.3 -15.0°
Maximum altitude 04:26:08 23° 199° (SSW) 1,887 6.2 -14.3°
Drops below altitude 10° 04:31:07 10° 148° (SSE) 2,699 7.6 -13.1°
Sets 04:34:26 0° 134° (SE) 3,692 8.6 -12.3°
